FW6626 Weather Reports


time (UTC)temp
C
wind
direction
speed
KPH
gust
KPH
rain 1hr
cm
rain 24hr
cm
rain mn
cm
humidity
%
barometer
mb
20260506024554 15 257 4.8 11.3 0.00 0.08 0.08 75 1016.1
20260506023108 15 244 4.8 12.9 0.00 0.08 0.08 74 1016.0
20260506021553 15 239 6.4 12.9 0.00 0.08 0.08 73 1015.7
20260506020054 16 241 3.2 16.1 0.00 0.08 0.08 72 1015.5
20260506014551 16 249 8.0 16.1 0.00 0.08 0.08 70 1015.4
20260506013052 17 261 11.3 22.5 0.00 0.08 0.08 68 1015.4
20260506011610 17 254 12.9 22.5 0.00 0.08 0.08 67 1015.1
20260506004625 17 267 12.9 27.4 0.00 0.08 0.08 66 1015.2
20260506003113 18 259 9.7 20.9 0.00 0.08 0.08 64 1015.2
20260506001557 17 263 11.3 22.5 0.00 0.08 0.08 66 1015.2
20260506000051 18 282 12.9 25.7 0.00 0.08 0.08 67 1015.1
20260505234617 18 360 14.5 27.4 0.00 0.08 0.08 64 1015.1
20260505233050 18 273 14.5 27.4 0.00 0.08 0.08 61 1015.2
20260505231551 18 269 12.9 29.0 0.03 0.08 0.08 64 1015.1
20260505230050 18 248 19.3 29.0 0.03 0.08 0.08 65 1015.2
20260505224551 18 263 16.1 30.6 0.03 0.08 0.08 63 1015.3
20260505223053 18 215 16.1 32.2 0.03 0.08 0.08 63 1015.5
20260505221551 18 268 11.3 25.7 0.00 0.05 0.05 62 1015.5
20260505220103 18 257 14.5 29.0 0.00 0.05 0.05 63 1015.7
20260505214602 19 231 12.9 25.7 0.00 0.05 0.05 63 1015.8
20260505213102 18 227 16.1 24.1 0.00 0.05 0.05 62 1015.9
20260505211557 18 284 14.5 29.0 0.00 0.05 0.05 61 1015.9
20260505210048 18 215 14.5 27.4 0.00 0.05 0.05 62 1016.1
20260505204549 18 234 14.5 30.6 0.00 0.05 0.05 62 1016.1
20260505203056 18 246 16.1 30.6 0.00 0.05 0.05 64 1016.2
20260505201549 18 277 12.9 29.0 0.00 0.05 0.05 64 1016.2
20260505200054 18 238 16.1 27.4 0.00 0.05 0.05 67 1016.2
20260505194556 18 225 12.9 25.7 0.00 0.05 0.05 69 1016.2
20260505193057 18 234 11.3 22.5 0.00 0.05 0.05 66 1016.2
20260505191559 18 225 14.5 27.4 0.00 0.05 0.05 66 1016.4
20260505190053 18 261 9.7 22.5 0.00 0.05 0.05 65 1016.4
20260505184602 18 240 11.3 20.9 0.00 0.05 0.05 65 1016.4
20260505183057 18 274 12.9 24.1 0.00 0.05 0.05 62 1016.4
20260505181554 17 257 9.7 25.7 0.00 0.05 0.05 70 1016.5
20260505174611 17 360 9.7 19.3 0.00 0.05 0.05 71 1016.1
20260505173052 17 262 9.7 19.3 0.00 0.05 0.05 68 1016.0
20260505171551 17 272 8.0 17.7 0.03 0.05 0.05 71 1015.9
20260505170136 16 237 6.4 20.9 0.03 0.05 0.05 73 1015.7
20260505164552 16 227 9.7 17.7 0.03 0.05 0.05 75 1015.6
20260505163055 16 360 4.8 16.1 0.03 0.05 0.05 76 1015.5
20260505161601 16 250 4.8 14.5 0.00 0.03 0.03 78 1015.3
20260505153059 15 290 4.8 11.3 0.00 0.03 0.03 84 1015.2
20260505151553 14 292 1.6 4.8 0.00 0.03 0.03 86 1015.1
20260505124554 13 0 0.0 4.8 0.00 0.05 0.03 88 1013.8
20260505123112 13 0 0.0 4.8 0.03 0.05 0.03 88 1013.8
20260505121556 13 0 1.6 9.7 0.03 0.05 0.03 88 1013.8
20260505120055 13 309 1.6 12.9 0.03 0.05 0.03 88 1013.6
20260505114612 13 0 1.6 8.0 0.03 0.05 0.03 88 1013.7
20260505113056 13 248 3.2 8.0 0.00 0.03 0.00 88 1013.6
20260505111605 13 0 0.0 0.0 0.00 0.03 0.00 88 1013.6
20260505101554 13 257 1.6 4.8 0.00 0.03 0.00 86 1014.0
20260505100055 13 0 0.0 4.8 0.00 0.03 0.00 85 1014.1
20260505094551 13 260 1.6 6.4 0.00 0.03 0.00 85 1014.0
20260505093053 13 0 0.0 9.7 0.00 0.03 0.00 83 1014.1
20260505091547 14 0 0.0 9.7 0.00 0.03 0.00 83 1014.2
20260505090055 14 296 3.2 11.3 0.00 0.03 0.00 83 1014.3
20260505084557 13 0 0.0 1.6 0.00 0.03 0.00 83 1014.4
20260505083105 13 0 0.0 1.6 0.00 0.03 0.00 83 1014.6
20260505081555 13 0 0.0 6.4 0.00 0.03 0.00 82 1014.8
20260505080051 13 251 3.2 12.9 0.00 0.03 0.00 83 1014.9
20260505074550 14 277 1.6 11.3 0.00 0.03 0.00 79 1014.9
20260505073108 13 255 3.2 12.9 0.00 0.03 0.00 83 1015.1
20260505071553 15 259 4.8 12.9 0.00 0.03 0.00 84 1015.1
20260505070055 15 277 3.2 16.1 0.00 0.03 0.00 83 1015.1
20260505064602 15 0 1.6 9.7 0.00 0.03 0.03 82 1015.4
20260505063055 15 0 1.6 6.4 0.00 0.03 0.03 82 1015.3
20260505061553 15 271 3.2 9.7 0.00 0.03 0.03 82 1015.3
20260505054604 15 0 1.6 12.9 0.00 0.03 0.03 82 1015.6
20260505053112 15 250 3.2 17.7 0.00 0.03 0.03 82 1015.7
20260505051555 15 261 9.7 20.9 0.00 0.03 0.03 82 1015.8
20260505041612 16 231 11.3 20.9 0.00 0.03 0.03 78 1015.7
20260505040057 16 360 8.0 17.7 0.00 0.03 0.03 77 1015.6
20260505034548 16 269 3.2 11.3 0.00 0.03 0.03 79 1015.6
20260505033054 16 288 6.4 12.9 0.00 0.03 0.03 78 1015.5
20260505031600 16 279 6.4 16.1 0.00 0.03 0.03 77 1015.4
20260505030052 16 246 8.0 16.1 0.00 0.03 0.03 76 1015.2